Weather History for KIML - December, 2011

Change the Weather History Date:

Saturday, December 17, 2011

  Actual Average Record
Temperature  
Mean Temperature 38 °F 28 °F  
Max Temperature 54 °F 41 °F 76 °F (1939)
Min Temperature 21 °F 15 °F -14 °F (1964)
Degree Days  
Heating Degree Days 27 37  
Month to date heating degree days 652 609  
Cooling Degree Days 0 0  
Month to date cooling degree days 0 0  
Year to date cooling degree days 1096 963  
Moisture  
Dew Point 19 °F    
Average Humidity 52    
Maximum Humidity 81    
Minimum Humidity 22    
Precipitation  
Precipitation 0.00 in 0.01 in 0.18 in (1967)
Sea Level Pressure  
Sea Level Pressure 30.37 in    
Wind  
Wind Speed 7 mph (West)    
Max Wind Speed 15 mph    
Max Gust Speed 18 mph    
Visibility 10 miles    
Events      
T = Trace of Precipitation, MM = Missing Value Source: NWS Daily Summary

Daily Weather History Graph

Daily Weather History Graph

Search for Another Location

Airport or City:

Trip Planner

Search our weather history database for the weather conditions in past years. The results will help you decide how hot, cold, wet, or windy it might be!

Date:

Astronomy

Dec. 17, 2011 Rise Set
Actual Time 7:03 AM MST 4:21 PM MST
Civil Twilight 6:33 AM MST 4:51 PM MST
Nautical Twilight 5:58 AM MST 5:26 PM MST
Astronomical Twilight 5:25 AM MST 5:59 PM MST
Moon No Moon Rise 11:18 AM MST (12/17)
Length of Visible Light 10h 18m
Length of Day
9h 17m
Waning Gibbous, 53% of the Moon is Illuminated
Dec 17
Waning Gibbous
Dec 17
Last Quarter
Dec 24
New
Dec 31
First Quarter
Jan 9
Full

Hourly Weather History & Observations

Time (MST) Temp. Windchill Dew Point Humidity Pressure Visibility Wind Dir Wind Speed Gust Speed Precip Events Conditions
12:53 AM 25.0 °F 15.5 °F 18.0 °F 75% 30.41 in 10.0 mi WNW 9.2 mph - N/A   Clear
1:53 AM 26.1 °F 17.6 °F 18.0 °F 71% 30.42 in 10.0 mi West 8.1 mph - N/A   Clear
2:53 AM 24.1 °F 16.0 °F 17.1 °F 75% 30.42 in 10.0 mi West 6.9 mph - N/A   Clear
3:53 AM 24.1 °F 14.4 °F 17.1 °F 75% 30.43 in 10.0 mi West 9.2 mph - N/A   Clear
4:53 AM 24.1 °F 18.2 °F 18.0 °F 77% 30.43 in 10.0 mi West 4.6 mph - N/A   Clear
5:53 AM 21.9 °F 13.4 °F 16.0 °F 78% 30.47 in 10.0 mi WNW 6.9 mph - N/A   Clear
6:53 AM 21.9 °F 11.7 °F 16.0 °F 78% 30.46 in 10.0 mi West 9.2 mph - N/A   Clear
7:53 AM 23.0 °F 13.9 °F 17.1 °F 78% 30.48 in 10.0 mi WNW 8.1 mph - N/A   Clear
8:53 AM 30.0 °F 22.4 °F 21.0 °F 69% 30.46 in 10.0 mi West 8.1 mph - N/A   Clear
9:53 AM 39.0 °F 33.4 °F 23.0 °F 53% 30.45 in 10.0 mi West 8.1 mph - N/A   Clear
10:53 AM 46.0 °F 41.9 °F 23.0 °F 40% 30.42 in 10.0 mi NW 8.1 mph - N/A   Clear
11:53 AM 51.1 °F - 19.9 °F 29% 30.38 in 10.0 mi West 10.4 mph - N/A   Clear
12:53 PM 53.1 °F - 17.1 °F 24% 30.35 in 10.0 mi West 10.4 mph - N/A   Clear
1:53 PM 54.0 °F - 16.0 °F 22% 30.32 in 10.0 mi WSW 10.4 mph - N/A   Clear
2:53 PM 54.0 °F - 17.1 °F 23% 30.31 in 10.0 mi West 5.8 mph - N/A   Clear
3:53 PM 48.0 °F - 19.0 °F 32% 30.32 in 10.0 mi SSW 6.9 mph - N/A   Clear
4:53 PM 39.2 °F - 17.6 °F 42% 30.25 in 10.0 mi Calm Calm - N/A   Clear
5:53 PM 39.0 °F 36.8 °F 19.0 °F 45% 30.34 in 10.0 mi West 3.5 mph - N/A   Clear
6:53 PM 32.0 °F 27.5 °F 19.0 °F 59% 30.36 in 10.0 mi WSW 4.6 mph - N/A   Clear
7:53 PM 30.9 °F 25.2 °F 19.9 °F 64% 30.35 in 10.0 mi SW 5.8 mph - N/A   Clear
8:53 PM 30.0 °F 23.2 °F 19.9 °F 66% 30.32 in 10.0 mi WSW 6.9 mph - N/A   Clear
9:53 PM 26.1 °F 17.6 °F 19.0 °F 75% 30.30 in 10.0 mi WSW 8.1 mph - N/A   Clear
10:53 PM 26.1 °F 18.4 °F 19.9 °F 78% 30.26 in 10.0 mi SW 6.9 mph - N/A   Clear
11:53 PM 26.1 °F 19.4 °F 19.0 °F 75% 30.22 in 8.0 mi WSW 5.8 mph - N/A   Clear